Weather History for PAOM - June, 2013

Change the Weather History Date:

Tuesday, June 4, 2013

  Actual Average Record
Temperature  
Mean Temperature 41 °F 44 °F  
Max Temperature 46 °F 51 °F 73 °F (1979)
Min Temperature 36 °F 37 °F 23 °F (1974)
Degree Days  
Heating Degree Days 24 21  
Month to date heating degree days 75 85  
Since 1 June heating degree days 75 85  
Since 1 July heating degree days 13860 13273  
Cooling Degree Days 0    
Month to date cooling degree days 0  
Year to date cooling degree days 0  
Since 1 June cooling degree days 0  
Moisture  
Dew Point 36 °F    
Average Humidity 0    
Maximum Humidity 0    
Minimum Humidity 0    
Precipitation  
Precipitation 0.00 in 0.02 in 0.30 in (1924)
Month to date precipitation 0.09 0.11  
Year to date precipitation 4.34 4.25  
Snow  
Snow 0.00 in 0.00 in 1.00 in (1924)
Month to date snowfall 0.0 0.1  
Since 1 June snowfall 0.0 0.1  
Since 1 July snowfall 65.7 75.5  
Snow Depth 0.00 in    
Sea Level Pressure  
Sea Level Pressure 29.69 in    
Wind  
Wind Speed 5 mph (SW)    
Max Wind Speed 12 mph    
Max Gust Speed 13 mph    
Visibility 10 miles    
Events      
T = Trace of Precipitation, MM = Missing Value Source: NWS Daily Summary

Daily Weather History Graph

Daily Weather History Graph

Search for Another Location

Airport or City:

Trip Planner

Search our weather history database for the weather conditions in past years. The results will help you decide how hot, cold, wet, or windy it might be!

Date:

Astronomy

Jun. 04, 2013 Rise Set
Actual Time 4:40 AM AKDT 1:21 AM AKDT
Civil Twilight Sun does not set Sun does not set
Nautical Twilight Sun does not set Sun does not set
Astronomical Twilight Sun does not set Sun does not set
Moon 4:02 AM AKDT (6/4) 8:33 PM AKDT (6/4)
Length of Visible Light 24h 00m
Length of Day
20h 40m
Waning Crescent, 13% of the Moon is Illuminated
Jun 4
Waning Crescent
Jun 8
New
Jun 16
First Quarter
Jun 23
Full
Jun 29
Last Quarter

Hourly Weather History & Observations

Time (AKDT) Temp. Windchill Dew Point Humidity Pressure Visibility Wind Dir Wind Speed Gust Speed Precip Events Conditions
12:53 AM 39.9 °F - 36.0 °F 86% 29.75 in 10.0 mi Calm Calm - N/A   Overcast
1:53 AM 42.1 °F - 37.9 °F 85% 29.75 in 10.0 mi Calm Calm - N/A   Overcast
2:53 AM 43.0 °F 38.2 °F 37.9 °F 82% 29.74 in 10.0 mi NW 8.1 mph - N/A   Overcast
3:53 AM 41.0 °F 38.0 °F 37.0 °F 86% 29.73 in 10.0 mi NW 4.6 mph - N/A   Overcast
4:53 AM 37.0 °F - 35.1 °F 93% 29.71 in 10.0 mi Calm Calm - N/A   Mostly Cloudy
5:53 AM 37.9 °F - 35.1 °F 89% 29.72 in 10.0 mi Calm Calm - N/A   Mostly Cloudy
6:53 AM 39.9 °F - 36.0 °F 86% 29.70 in 10.0 mi Calm Calm - N/A   Mostly Cloudy
7:53 AM 39.0 °F 36.8 °F 36.0 °F 89% 29.70 in 10.0 mi South 3.5 mph - N/A   Mostly Cloudy
8:53 AM 41.0 °F 39.0 °F 37.9 °F 89% 29.70 in 10.0 mi South 3.5 mph - N/A   Mostly Cloudy
9:53 AM 41.0 °F 37.1 °F 37.9 °F 89% 29.69 in 10.0 mi South 5.8 mph - N/A   Scattered Clouds
10:53 AM 41.0 °F 35.2 °F 37.0 °F 86% 29.70 in 10.0 mi SSW 9.2 mph - N/A   Scattered Clouds
11:53 AM 41.0 °F 35.8 °F 36.0 °F 82% 29.70 in 10.0 mi SW 8.1 mph - N/A   Mostly Cloudy
12:53 PM 42.1 °F 36.1 °F 36.0 °F 79% 29.70 in 10.0 mi WSW 10.4 mph - N/A   Mostly Cloudy
1:53 PM 43.0 °F 37.2 °F 37.0 °F 80% 29.68 in 10.0 mi SSW 10.4 mph - N/A   Mostly Cloudy
2:53 PM 43.0 °F 38.8 °F 37.9 °F 82% 29.69 in 10.0 mi SSW 6.9 mph - N/A   Mostly Cloudy
3:53 PM 44.1 °F 40.1 °F 37.0 °F 76% 29.68 in 10.0 mi SSW 6.9 mph - N/A   Mostly Cloudy
4:53 PM 43.0 °F 38.2 °F 36.0 °F 76% 29.68 in 10.0 mi SW 8.1 mph - N/A   Clear
5:53 PM 43.0 °F 41.3 °F 35.1 °F 74% 29.68 in 10.0 mi SSW 3.5 mph - N/A   Mostly Cloudy
6:53 PM 45.0 °F 40.6 °F 37.0 °F 74% 29.67 in 10.0 mi South 8.1 mph - N/A   Mostly Cloudy
7:53 PM 39.0 °F 35.7 °F 34.0 °F 82% 29.65 in 10.0 mi SSW 4.6 mph - N/A   Clear
8:53 PM 43.0 °F 40.3 °F 34.0 °F 71% 29.65 in 10.0 mi SSW 4.6 mph - N/A   Scattered Clouds
9:53 PM 39.9 °F 37.8 °F 33.1 °F 77% 29.64 in 10.0 mi South 3.5 mph - N/A   Clear
10:53 PM 39.0 °F - 33.1 °F 79% 29.64 in 10.0 mi Calm Calm - N/A   Clear
11:53 PM 37.9 °F 33.5 °F 32.0 °F 79% 29.64 in 10.0 mi WSW 5.8 mph - N/A   Scattered Clouds